TIME,DELAY(SENSOR),PRES,T(CTD),SAL,OXYGEN,RAWTEMP,T(OPTODE),TCPHASE,FLUOR,BETA(BETA700),BETA(BETA412),BETA(BETA440),CDOM,C(CSC),ED(ED411.90),ED(ED443.80),ED(ED489.40),ED(ED554.70),LU(LU412.20),LU(LU443.80),LU(LU489.40),LU(LU555.00),COMP,TILTX,TILTX(TILTY),CHECK
1342366222,5804,493.0000000000000000,17.1128997802734380,36.3945007324218750,227.5563964843750000,184.5476989746093800,17.1141796112060550,31.4975109100341800,51,101,97,81,67,14372,2146954761,2147515218,2147270601,2147472036,2147088045,2146953590,2147658157,2147115145,2259,-2,8,35316
1342366339,5805,483.0599975585937500,17.2063007354736330,36.4135017395019500,229.2796936035156200,181.6394958496093800,17.2018909454345700,31.3712692260742200,51,101,99,80,67,14376,2146951021,2147513088,2147267821,2147466953,2147088301,2146950601,2147658688,2147118454,2286,-2,8,53835
1342366502,5803,471.6199951171875000,17.2411994934082030,36.4205017089843750,229.9907989501953000,180.2839965820312500,17.2427692413330080,31.3171691894531250,51,100,98,79,68,14377,2146955273,2147512402,2147269650,2147468315,2147087021,2146955081,2147654208,2147118665,2086,-2,8,31071
1342366646,5806,459.7900085449219000,17.3820991516113280,36.4482994079589840,233.0697937011718800,175.8347015380859400,17.3769702911376950,31.1046295166015620,50,100,98,80,68,14376,2146951963,2147511680,2147268882,2147467876,2147088786,2146956077,2147656841,2147115419,2713,-2,8,56407
1342366761,5804,448.6900024414062500,17.4438991546630860,36.4609985351562500,234.3255004882812500,173.7817993164062500,17.4388999938964840,31.0158691406250000,50,100,98,80,67,14375,2146949805,2147512045,2147270153,2147466605,2147091172,2146955584,2147655606,2147120649,2544,-2,8,52545
1342366876,5804,437.7300109863281000,17.5016002655029300,36.4715995788574200,234.9886932373047000,171.9154968261718800,17.4952106475830080,30.9582195281982420,50,100,98,80,69,14375,2146953289,2147514624,2147268370,2147463652,2147089609,2146957147,2147655881,2147123355,2553,-2,8,18021
1342366993,5807,426.6600036621094000,17.5704994201660160,36.4836997985839840,235.4781951904297000,169.2734069824218800,17.5749301910400400,30.8989696502685550,51,101,99,80,68,14373,2146955849,2147515062,2147266020,2147467785,2147087899,2146956105,2147656036,2147117659,2701,-2,8,8747
1342367108,5806,416.1600036621094000,17.6629009246826170,36.5004005432128900,235.8681030273437500,166.5590972900390600,17.6568508148193360,30.8438491821289060,50,101,98,81,67,14375,2146951323,2147513682,2147265764,2147462464,2147088713,2146955840,2147653942,2147122258,2058,-2,8,43123
1342367237,5805,404.5000000000000000,17.7150993347167970,36.5097007751464840,236.3818054199218800,164.7306060791015600,17.7120304107666000,30.7945194244384770,50,101,98,80,68,14376,2146950491,2147517403,2147265636,2147461659,2147083099,2146955821,2147653750,2147122404,1656,-2,8,61516
1342367364,5804,393.1600036621094000,17.7614002227783200,36.5177001953125000,236.9533996582031200,163.2100982666015600,17.7579307556152340,30.7467994689941400,50,101,97,80,67,14375,2146951296,2147514633,2147267538,2147461403,2147086500,2146953636,2147655707,2147121782,1234,-2,8,62147
1342367491,5804,381.8999938964844000,17.8022003173828120,36.5247993469238300,237.6522064208984400,161.8999023437500000,17.7974796295166000,30.6958408355712900,50,101,98,81,67,14375,2146953472,2147512301,2147271158,2147460580,2147086829,2146951734,2147651629,2147120109,1067,-2,8,35130
1342367608,5804,371.5700073242187500,17.8400993347167970,36.5298004150390600,237.7129058837890600,160.7167053222656200,17.8332004547119140,30.6772308349609380,50,100,98,81,67,14375,2146953984,2147509312,2147268736,2147459766,2147087149,2146956068,2147656704,2147116443,1139,-2,8,43605
1342367735,5805,360.5100097656250000,17.8922996520996100,36.5382003784179700,237.3520965576172000,158.7716064453125000,17.8919200897216800,30.6681995391845700,50,100,98,81,67,14374,2146953938,2147513225,2147271625,2147459675,2147088594,2146958765,2147655917,2147125522,1121,-2,8,18598
1342367864,5807,349.4299926757812500,17.9703006744384770,36.5495986938476560,237.5457000732422000,156.3229980468750000,17.9658603668212900,30.6261901855468750,50,101,97,80,67,14374,2146952566,2147516909,2147272868,2147463744,2147089865,2146955803,2147655140,2147122569,507,-2,8,55100
1342367991,5806,338.6099853515625000,17.9972991943359380,36.5540008544921900,237.4026031494140600,155.4369964599609400,17.9926204681396500,30.6214294433593750,51,101,98,81,68,14372,2146953161,2147515081,2147276699,2147462692,2147086646,2146959360,2147654957,2147120649,578,-2,8,14943
1342368118,5805,327.7000122070312500,18.0226001739501950,36.5559997558593750,236.4104003906250000,154.5261993408203000,18.0201206207275400,30.6562995910644530,51,101,97,81,67,14372,2146952493,2147516443,2147277604,2147464374,2147086454,2146961828,2147657654,2147124251,176,-2,8,43513
1342368247,5804,316.7799987792969000,18.0727005004882800,36.5615997314453100,235.8740997314453000,152.8394927978515600,18.0710601806640620,30.6595706939697270,51,103,98,81,68,14371,2146951954,2147517796,2147283126,2147461156,2147088146,2146958144,2147660653,2147122633,437,-2,8,4058
1342368386,5807,305.2099914550781000,18.1114997863769530,36.5662994384765600,235.5561981201172000,151.5879058837890600,18.1088695526123050,30.6582603454589840,50,103,99,82,67,14369,2146950418,2147518857,2147289837,2147457920,2147086793,2146959506,2147663908,2147121993,574,-2,8,20794
1342368515,5810,294.6700134277344000,18.1769008636474600,36.5733985900878900,234.9566955566406200,149.5254058837890600,18.1711807250976560,30.6594505310058600,50,103,98,80,68,14368,2146951771,2147522422,2147298496,2147458020,2147088320,2146965732,2147664548,2147124827,65,-2,8,36771
1342368654,5806,283.5700073242187500,18.2446994781494140,36.5814018249511700,234.2651977539062500,147.2126007080078000,18.2410507202148440,30.6618690490722660,50,103,98,81,68,14366,2146952192,2147524571,2147301504,2147461193,2147086802,2146965458,2147669010,2147125165,3202,-2,8,38087
1342368814,5807,270.2900085449219000,18.2943000793457030,36.5859985351562500,233.5545043945312500,145.6360015869140600,18.2887001037597660,30.6752490997314450,50,104,99,82,67,14362,2146953133,2147520868,2147307812,2147460827,2147084800,2146967789,2147675072,2147127314,2664,-2,8,3812
1342368928,5803,258.7300109863281000,18.3558006286621100,36.5900993347168000,232.5827026367187500,143.5314941406250000,18.3522891998291000,30.6944999694824220,51,105,98,81,68,14362,2146952045,2147531894,2147326610,2147462400,2147089846,2146966683,2147685339,2147125814,2779,-2,8,2147
1342369031,5806,247.9400024414062500,18.4351005554199220,36.5960006713867200,230.6183929443359400,140.7875061035156200,18.4352397918701170,30.7538795471191400,50,111,99,82,68,14361,2146954267,2147542930,2147356982,2147459474,2147087872,2146977554,2147706121,2147127588,2996,-2,8,50070
1342369150,5804,236.8099975585937500,18.5212993621826170,36.5997009277343750,228.9085998535156200,138.1080017089843800,18.5162391662597660,30.8022708892822270,51,106,100,81,68,14360,2146954907,2147561097,2147407981,2147458834,2147083328,2146990857,2147731584,2147128749,3215,-2,8,23624
1342369289,5805,225.8899993896484400,18.6959991455078120,36.6082000732421900,228.0097961425781200,132.4022064208984400,18.6888008117675780,30.7707691192626950,51,108,99,81,68,14361,2146959771,2147587538,2147473106,2147457947,2147088073,2147008310,2147772114,2147129344,2945,-2,8,40667
1342369430,5805,215.0399932861328000,18.8129005432128900,36.6132011413574200,229.3363952636718800,128.3247985839843800,18.8121604919433600,30.6508293151855470,51,104,99,80,68,14361,2146961097,2147613257,2147542052,2147458834,2147087899,2147024118,2147806253,2147132288,2757,-2,8,30161
1342369581,5806,203.9400024414062500,18.9353008270263670,36.6013984680175800,232.6553039550781200,124.4545974731445300,18.9292907714843750,30.4375896453857420,51,106,100,82,66,14360,2146965330,2147659318,2147654802,2147456493,2147086006,2147056694,2147867547,2147135168,2935,-3,8,8422
1342369672,5804,197.6300048828125000,18.9967994689941400,36.5964012145996100,235.3316040039062500,122.4857025146484400,18.9888992309570300,30.2830600738525400,50,108,99,82,66,14350,2146969737,2147697828,2147746870,2147455634,2147086144,2147089481,2147917531,2147138697,2854,-2,8,2091
1342369750,5809,192.7700042724609400,19.1130008697509770,36.6008987426757800,239.3341064453125000,118.6465988159179700,19.1051406860351560,30.0439491271972660,51,106,99,82,66,14361,2146975515,2147729069,2147819675,2147457728,2147093229,2147112630,2147961234,2147138797,112,-2,8,31819
1342369817,5803,189.5299987792968800,19.1319999694824220,36.5884017944335940,242.8289031982422000,118.0262985229492200,19.1239299774169920,29.8739700317382800,51,106,99,81,67,14359,2146976786,2147747026,2147865417,2147455762,2147097216,2147125540,2147987547,2147142646,153,-2,8,52708
1342369908,5804,185.3699951171875000,19.1564998626709000,36.5856018066406250,246.1609954833984400,117.0716018676757800,19.1528491973876950,29.7099895477294920,52,105,100,82,65,14356,2146986368,2147790683,2147951433,2147456859,2147097252,2147152466,2148037174,2147145572,3454,-2,8,24964
1342369999,5808,181.4100036621093800,19.1842002868652340,36.5854988098144500,248.6806945800781200,116.2505035400390600,19.1777191162109380,29.5861797332763670,52,104,100,82,66,14359,2146992649,2147830025,2148053120,2147455076,2147103954,2147187584,2148094902,2147147666,489,-2,8,13571
1342370080,5804,177.8800048828125000,19.2194995880126950,36.5864982604980500,250.1692047119140600,115.0031967163086000,19.2154998779296880,29.5039405822753900,51,107,101,82,66,14360,2146977005,2147691099,2147688493,2147456420,2147104173,2147099529,2147912027,2147141010,219,-2,8,34457
1342370183,5805,173.3999938964843800,19.2772998809814450,36.5984992980957000,250.8184967041015600,113.2051010131836000,19.2699794769287100,29.4520797729492200,53,210,100,82,66,14351,2147002304,2147887067,2148176585,2147455076,2147110784,2147229467,2148175954,2147152027,308,-2,8,9816
1342370262,5808,169.8399963378906200,19.2891998291015620,36.5974998474121100,252.2483062744140600,112.7326965332031200,19.2842998504638670,29.3830890655517580,54,110,99,82,64,14355,2147014765,2147973924,2148370560,2147458587,2147127643,2147289837,2148281261,2147162020,631,-2,8,41434
1342370329,5804,166.8000030517578000,19.3076992034912100,36.5993995666503900,252.9640045166015600,112.1337966918945300,19.3024501800537100,29.3440895080566400,54,108,100,82,65,14354,2147024073,2148015140,2148473389,2147459474,2147128795,2147330477,2148347117,2147165110,380,-2,8,55750
1342370422,5805,162.5099945068359400,19.2889003753662100,36.5871009826660160,253.9723052978515600,112.6863021850586000,19.2857093811035160,29.3073005676269530,55,111,99,84,65,14350,2147038482,2148089270,2148645238,2147460489,2147139666,2147383241,2148441874,2147168009,468,-2,8,11793
1342370501,5804,158.8600006103515600,19.2989006042480470,36.5871009826660160,254.1703948974609400,112.4992980957031200,19.2913703918457030,29.2963600158691400,56,110,100,82,64,14352,2147051876,2148152237,2148768539,2147461741,2147145124,2147432877,2148515657,2147171392,484,-2,8,47336
1342370568,5803,155.8699951171875000,19.3104991912841800,36.5891990661621100,254.4499053955078000,112.0024032592773400,19.3064308166503900,29.2778491973876950,57,112,100,84,64,14345,2147067556,2148219766,2148909220,2147461348,2147158976,2147481152,2148599771,2147179328,289,-2,8,11416
1342370671,5805,151.4299926757812500,19.3190994262695300,36.5901985168457000,254.7854003906250000,111.7538986206054700,19.3139591217041000,29.2600803375244140,60,116,100,83,64,14345,2147093376,2148314093,2149118235,2147460160,2147169408,2147557568,2148727323,2147182317,235,-2,8,34506
1342370764,5804,147.5099945068359400,19.3411006927490230,36.5908012390136700,255.2373962402343800,111.0334014892578100,19.3357906341552730,29.2312908172607420,61,115,100,83,65,14336,2147123483,2148428416,2149340946,2147468379,2147186834,2147637211,2148850624,2147192512,178,-2,8,22942
1342370855,5808,143.8500061035156200,19.3572006225585940,36.5918006896972660,255.5659027099609400,110.4810028076171900,19.3525390625000000,29.2100200653076170,69,117,102,84,63,14323,2147161252,2148595081,2149663981,2147468608,2147216722,2147738550,2149025426,2147202148,362,-2,8,3029
1342370958,5805,139.9499969482422000,19.3726997375488280,36.5937004089355500,255.7333984375000000,109.9893035888671900,19.3674392700195300,29.1965694427490230,77,120,101,84,65,14322,2147211117,2148757878,2150000128,2147471341,2147232877,2147850541,2149190546,2147212827,3385,-3,9,22196
1342371069,5804,135.2599945068359400,19.3773994445800780,36.5917015075683600,255.9268951416015600,109.7720031738281200,19.3740291595459000,29.1853008270263670,82,122,102,85,64,14311,2147294729,2149056685,2150582866,2147483181,2147282605,2148034797,2149478345,2147229915,3204,-2,8,21790
1342371148,5805,131.0200042724609400,19.3841991424560550,36.5862007141113300,255.9654998779297000,110.0166015625000000,19.3666095733642580,29.1868400573730470,94,131,102,85,63,14286,2147394797,2149382619,2151189165,2147493174,2147331236,2148212269,2149768722,2147250587,3539,-2,8,52917
1342371215,5805,127.4700012207031200,19.3899993896484380,36.5831985473632800,255.7476959228515600,109.3003997802734400,19.3883209228515620,29.1869297027587900,97,130,103,84,66,14292,2147501211,2149719058,2151795099,2147501842,2147385600,2148381833,2150024612,2147268754,3440,-2,8,4052
1342371294,5802,123.2900009155273400,19.4055004119873050,36.5793991088867200,255.9281005859375000,108.9579010009765600,19.3987007141113280,29.1749000549316400,118,141,104,85,65,14271,2147671058,2150254326,2152733376,2147524050,2147459977,2148605760,2150382720,2147294957,3411,-2,8,15681
1342371375,5805,119.0599975585937500,19.4251003265380860,36.5808982849121100,256.0148925781250000,108.0999984741211000,19.4247093200683600,29.1600608825683600,127,139,105,85,66,14261,2147897938,2150942710,2153893531,2147546596,2147560923,2148875766,2150781933,2147331218,245,-2,8,29806
1342371442,5805,115.5800018310546900,19.4381008148193360,36.5802001953125000,257.3960876464844000,107.8515014648437500,19.4322490692138670,29.0978107452392580,139,138,105,85,67,14250,2148155227,2151685750,2155104082,2147571858,2147653467,2149135716,2151188214,2147365019,582,-2,8,61612
1342371521,5807,111.4599990844726600,19.4522991180419920,36.5775985717773440,257.4867858886719000,106.9742965698242200,19.4588394165039060,29.0825691223144530,147,177,107,86,64,14238,2148565394,2152817709,2156868900,2147616960,2147799533,2149534912,2151794889,2147419172,721,-2,8,12676
1342371600,5805,107.4499969482421900,19.4948005676269530,36.5876007080078100,259.1120910644531000,105.8401031494140600,19.4932308197021500,28.9990596771240230,152,135,102,85,66,14241,2149121362,2154316059,2159099968,2147672109,2147996736,2150032740,2152463469,2147484178,126,-2,8,40102
1342371681,5806,103.4000015258789000,19.5219001770019530,36.5828018188476560,261.4772033691406000,105.5290985107421900,19.5026607513427730,28.8955802917480470,155,135,104,86,67,14228,2149948845,2156441261,2162060845,2147754130,2148270994,2150699968,2153393618,2147572233,3425,-2,9,6862
1342371760,5806,99.5199966430664000,19.5044994354248050,36.5658988952636700,261.0356140136719000,105.4674987792968800,19.5045299530029300,28.9133300781250000,174,146,106,88,65,14176,2151136027,2159464210,2166099648,2147870729,2148645129,2151596141,2154582701,2147692580,3193,-2,8,28801
1342371815,5805,96.8700027465820300,19.5354003906250000,36.5681991577148440,262.2391052246094000,104.6592025756836000,19.5290393829345700,28.8525791168212900,171,141,106,88,67,14169,2151442560,2159919762,2166081389,2147896576,2148708937,2151569435,2154385005,2147695981,3176,-2,8,12761
1342371870,5804,94.2300033569336000,19.5541000366210940,36.5675010681152340,263.1268920898437500,103.9617996215820300,19.5501899719238280,28.8067398071289060,166,146,108,88,66,14163,2153203181,2164282496,2171907099,2148082102,2149313572,2153106843,2156496493,2147894198,3035,-2,8,4118
1342371925,5806,91.6699981689453100,19.6019001007080080,36.5695991516113300,264.9396972656250000,102.5067977905273400,19.5943298339843750,28.7131996154785160,148,133,106,86,67,14162,2154567040,2167169837,2175063789,2148200850,2149805220,2154235108,2157773357,2148029101,3100,-2,9,42121
1342371982,5804,89.1600036621093800,19.6275997161865230,36.5672988891601560,266.5354003906250000,100.6323013305664000,19.6511898040771500,28.6240005493164060,135,131,104,87,68,14143,2156133741,2170368064,2178681307,2148347245,2150389869,2155561782,2159222546,2148182116,2763,-2,8,50402
1342372037,5804,86.8300018310546900,19.7120990753173830,36.5738983154296900,268.6383972167969000,98.9315490722656200,19.7028007507324220,28.5168209075927730,113,129,106,85,65,14197,2157680822,2173285504,2181734454,2148515785,2151004013,2156874020,2160578907,2148329764,2656,-2,8,39785
1342372092,5800,84.7699966430664000,19.7542991638183600,36.5782012939453100,269.8724975585937500,97.4228973388671900,19.7485809326171880,28.4481391906738280,110,130,106,87,64,14209,2159385344,2176486957,2185143460,2148684726,2151773028,2158514806,2162332324,2148502756,1972,-2,8,52465
1342372147,5808,82.8199996948242200,19.7970008850097660,36.5787010192871100,271.4017028808594000,96.2176513671875000,19.7851600646972660,28.3715496063232420,105,128,104,87,65,14201,2161240704,2179824082,2188519094,2148885659,2152590482,2160161252,2163971547,2148675254,1758,-2,9,30324
1342372202,5805,80.8799972534179700,19.7975006103515620,36.5783996582031250,272.2669982910156000,95.9614562988281200,19.7929401397705080,28.3338603973388670,105,129,105,92,66,14193,2163444123,2183511094,2192127158,2149106816,2153572114,2162105371,2165810121,2148857682,1970,-2,8,24696
1342372257,5806,79.0100021362304700,19.8001995086669920,36.5769996643066400,272.8540954589844000,95.7516784667968800,19.7993106842041000,28.3077392578125000,102,127,104,85,65,14194,2165769773,2187309632,2195823990,2149371712,2154573412,2163933238,2167344502,2149025654,2261,-2,8,8786
1342372336,5807,75.8000030517578100,19.9314994812011720,36.5831985473632800,273.8522949218750000,91.3925170898437500,19.9316692352294920,28.2135200500488280,97,133,107,87,63,14166,2171160420,2195776054,2203862235,2149944941,2157038546,2168417746,2171350546,2149459017,2480,-2,8,36445
1342372391,5806,73.1100006103515600,20.0342006683349600,36.5894012451171900,276.0928039550781000,88.2892532348632800,20.0259304046630860,28.0866508483886720,92,133,108,86,62,14171,2175712804,2202403355,2209884544,2150445750,2159310372,2172303926,2174716790,2149804324,2399,-2,8,35260
1342372446,5807,70.4599990844726600,20.1138992309570300,36.5952987670898440,277.8103942871094000,85.3112869262695300,20.1164207458496100,27.9826297760009770,91,133,107,87,61,14153,2182075885,2211901485,2218816064,2151189869,2162430070,2177445805,2178998747,2150276205,2597,-2,9,30223
1342372501,5805,67.9100036621093800,20.2835006713867200,36.6025009155273440,278.9273986816406000,80.1619033813476600,20.2729701995849600,27.8752803802490230,84,134,108,87,63,14153,2188465225,2220562230,2226581037,2151990299,2165898550,2182888649,2183424429,2150768438,3069,-2,8,58399
1342372556,5809,65.6399993896484400,20.4232006072998050,36.6049995422363300,280.2166137695312500,76.0216598510742200,20.3989105224609380,27.7744407653808600,78,132,109,87,62,14153,2168858560,2182824438,2182128713,2149329462,2157776466,2165978468,2165197586,2148869595,2735,-2,8,47533
1342372611,5806,63.5499992370605500,20.5203990936279300,36.6068000793457000,281.2297058105469000,72.8211288452148400,20.4963207244873050,27.6960105895996100,78,134,108,87,63,14148,2194254582,2225428233,2228523648,2152793536,2170307309,2188652461,2187085421,2151236297,2756,-2,8,57585
1342372668,5803,61.5099983215332000,20.6189002990722660,36.6082992553710940,282.1278076171875000,69.6567993164062500,20.5926609039306640,27.6227302551269530,78,134,110,89,63,14146,2208622765,2247473819,2251451044,2154862390,2177308681,2199856649,2196641728,2152350253,3168,-2,8,47665
1342372723,5803,59.7500000000000000,20.7702007293701170,36.6017990112304700,282.2106933593750000,64.4727935791015600,20.7505702972412100,27.5556697845459000,74,135,110,89,61,14143,2212221467,2250471744,2253074340,2155503350,2180280329,2203783460,2199554176,2152714093,3217,-2,9,27914
1342372778,5802,58.4300003051757800,20.8484001159667970,36.5997009277343750,282.7856140136719000,61.6898498535156250,20.8353996276855470,27.4997406005859380,73,134,109,90,60,14126,2216117302,2255146377,2257001563,2156088768,2182819008,2207141165,2201884571,2153004745,3169,-3,8,28323
1342372953,5808,56.9300003051757800,21.0212001800537100,36.5984001159668000,283.6878967285156000,55.5108604431152340,21.0238399505615230,27.3897209167480470,70,136,108,88,62,14128,2223347117,2264064164,2265230601,2157151917,2187661970,2213686070,2206556964,2153632548,3559,-2,8,51804
1342373202,5801,52.5299987792968750,21.3213996887207030,36.5787010192871100,283.7520141601562500,45.8501701354980500,21.3188095092773440,27.2689990997314450,66,137,110,87,59,14116,2246993636,2290252818,2286540297,2161167122,2206738788,2238250605,2223578816,2155712173,2759,-3,9,10850
1342373236,5804,51.7999992370605500,21.3236007690429700,36.5778007507324200,283.5520935058594000,45.6126594543457000,21.3260593414306640,27.2736206054687500,66,135,108,89,63,14124,2251349824,2295406710,2291039533,2161936548,2210483876,2243186834,2227152320,2156179702,2444,-2,9,29736
1342373340,5805,49.3199996948242200,21.3281993865966800,36.5629005432128900,283.6755981445312500,44.9724197387695300,21.3456306457519530,27.2610893249511720,66,134,109,89,60,14119,2263491218,2306139026,2298213366,2163960493,2221657563,2255705682,2235269074,2157332233,2314,-3,9,49934
1342373383,5804,47.6500015258789060,21.4269008636474600,36.5633010864257800,282.9205017089844000,41.6122703552246100,21.4483299255371100,27.2484092712402340,64,135,109,88,60,14121,2285384429,2333250441,2323931108,2168114870,2236871561,2275495606,2249712740,2159331291,2559,-2,8,12563
1342373437,5807,45.7299995422363300,21.8523998260498050,36.5503997802734400,281.2827148437500000,29.5625190734863280,21.8170890808105470,27.1630992889404300,62,136,109,89,59,14117,2300194459,2349713600,2338811858,2171607689,2249146422,2289610752,2259234422,2160719670,2367,-3,9,54944
1342373535,5804,43.9000015258789060,22.0869007110595700,36.5535011291503900,280.1762084960937500,20.9403800964355470,22.0813999176025400,27.1000099182128900,60,136,108,88,60,14121,2297153252,2342753426,2331933604,2172504219,2249851072,2286215899,2255058532,2160850468,2281,-3,9,20306
1342373812,5806,41.9700012207031250,22.6714992523193360,36.5023994445800800,276.1391906738281000,1.5855610370635986,22.6761493682861330,27.0184593200683600,59,124,109,89,62,14129,2319986029,2369344384,2356512822,2177854857,2272548937,2314125202,2274486838,2163294893,3206,-2,9,31227
1342373955,5803,39.7000007629394500,22.7220001220703120,36.4970016479492200,275.0537109375000000,-1.0389449596405030,22.7569599151611330,27.0283393859863280,58,132,108,88,59,14131,2323472274,2370792182,2358711753,2182467730,2277850477,2317875785,2276627593,2164320292,3425,-1,9,23173
1342374020,5805,37.6599998474121100,22.9185009002685550,36.4719009399414060,273.8106994628906000,-6.0062890052795410,22.9100093841552730,27.0158596038818360,59,133,106,88,60,14138,2334163337,2381582317,2369667026,2188362240,2291199606,2331582665,2285572196,2166327533,3341,-2,9,6698
1342374107,5806,35.8800010681152340,23.1795005798339840,36.4474983215332000,272.0918884277344000,-12.4562196731567380,23.1089591979980470,27.0042400360107420,59,128,108,86,59,14141,2333560018,2378983606,2366495561,2189287451,2294705325,2332960320,2284816886,2166333659,3164,-2,9,17576
1342374338,5807,33.6699981689453100,23.4148006439209000,36.4365997314453100,268.7121887207031000,-22.7161502838134770,23.4259490966796880,27.0118293762207030,57,127,106,87,58,14151,2367247552,2417458212,2403973860,2202413366,2334455972,2377182491,2314087067,2171199250,2829,-2,9,58510